Tracking 28764 objects as of 13-Apr-2024
HD Live streaming from Space Station
objects crossing your sky now

FREGAT DEB

Track FREGAT DEB now!
10-day predictions


NORAD ID: 44608
Int'l Code: 2017-042CB
Perigee: 416.6 km
Apogee: 465.7 km
Inclination: 97.5 °
Period: 93.3 minutes
Semi major axis: 6812 km
RCS: Unknown
Launch date: July 14, 2017
Source: Commonwealth of Independent States (former USSR) (CIS)
Launch site: TYURATAM MISSILE AND SPACE COMPLEX (TTMTR)

Note: This is SATELLITE DEBRIS
Your satellite tracking list
Your tracking list is empty




NASA's NSSDC Master Catalog

Two Line Element Set (TLE):
1 44608U 17042CB  24102.52120893  .00060506  00000-0  12856-2 0  9996
2 44608  97.5109  21.8028 0036017   5.1196 355.0413 15.44098812346955
Source of the keplerian elements: AFSPC